Change the Weather History Date:

Tuesday, April 23, 2013

  Actual Average Record
Temperature  
Mean Temperature 58 °F -  
Max Temperature 64 °F 71 °F 82 °F (1999)
Min Temperature 48 °F 50 °F 43 °F (2012)
Degree Days  
Heating Degree Days 8    
Growing Degree Days 8 (Base 50)    
Moisture  
Dew Point 50 °F    
Average Humidity 80    
Maximum Humidity 93    
Minimum Humidity 58    
Precipitation  
Precipitation 0.00 in - - ()
Sea Level Pressure  
Sea Level Pressure 30.15 in    
Wind  
Wind Speed 12 mph ()    
Max Wind Speed 21 mph    
Max Gust Speed 28 mph    
Visibility 8.2 miles    
Events      
Averages and records for this station are not official NWS values.
T = Trace of Precipitation, MM = Missing Value Source: Averaged Metar Reports

Daily Weather History Graph

Daily Weather History Graph

Search for Another Location

Airport or City:

Trip Planner

Search our weather history database for the weather conditions in past years. The results will help you decide how hot, cold, wet, or windy it might be!

Date:

Astronomy

Apr. 23, 2013 Rise Set
Actual Time 6:25 AM EDT 7:46 PM EDT
Civil Twilight 5:59 AM EDT 8:13 PM EDT
Nautical Twilight 5:27 AM EDT 8:44 PM EDT
Astronomical Twilight 4:54 AM EDT 9:18 PM EDT
Moon 5:43 PM EDT (4/23) 4:46 AM EDT (4/23)
Length of Visible Light 14h 14m
Length of Day
13h 21m
Waxing Gibbous, 94% of the Moon is Illuminated
Apr 23
Waxing Gibbous
Apr 25
Full
May 2
Last Quarter
May 9
New
May 18
First Quarter

Hourly Weather History & Observations

Time (EDT) Temp. Dew Point Humidity Pressure Visibility Wind Dir Wind Speed Gust Speed Precip Events Conditions
12:54 AM 53.1 °F 50.0 °F 89% 30.16 in 6.0 mi NNE 15.0 mph - 0.00 in   Overcast
1:54 AM 53.1 °F 50.0 °F 89% 30.14 in 5.0 mi NNE 15.0 mph - N/A   Overcast
2:54 AM 52.0 °F 50.0 °F 93% 30.12 in 8.0 mi North 17.3 mph - N/A   Overcast
3:54 AM 52.0 °F 50.0 °F 93% 30.12 in 4.0 mi North 20.7 mph 27.6 mph N/A   Overcast
4:54 AM 52.0 °F 48.9 °F 89% 30.11 in 5.0 mi North 17.3 mph 24.2 mph N/A   Overcast
5:54 AM 52.0 °F 50.0 °F 93% 30.11 in 5.0 mi NNE 16.1 mph 26.5 mph N/A   Overcast
6:54 AM 52.0 °F 50.0 °F 93% 30.13 in 4.0 mi North 12.7 mph - N/A   Overcast
7:54 AM 53.1 °F 50.0 °F 89% 30.14 in 6.0 mi North 12.7 mph - N/A   Overcast
8:54 AM 54.0 °F 50.0 °F 86% 30.16 in 8.0 mi North 13.8 mph - N/A   Overcast
9:54 AM 54.0 °F 51.1 °F 90% 30.17 in 5.0 mi NNE 15.0 mph - N/A   Overcast
10:54 AM 55.9 °F 50.0 °F 80% 30.18 in 10.0 mi North 16.1 mph - N/A   Overcast
11:07 AM 57.2 °F 51.8 °F 82% 30.18 in 10.0 mi NNE 13.8 mph - N/A   Overcast
11:35 AM 57.2 °F 50.0 °F 77% 30.18 in 10.0 mi North 17.3 mph 23.0 mph N/A   Overcast
11:54 AM 59.0 °F 50.0 °F 72% 30.17 in 10.0 mi North 16.1 mph 21.9 mph N/A   Overcast
12:54 PM 60.1 °F 50.0 °F 69% 30.16 in 10.0 mi North 16.1 mph 21.9 mph N/A   Mostly Cloudy
1:54 PM 61.0 °F 48.9 °F 64% 30.16 in 10.0 mi North 13.8 mph 23.0 mph N/A   Overcast
2:54 PM 63.0 °F 50.0 °F 63% 30.16 in 10.0 mi North 12.7 mph - N/A   Scattered Clouds
3:54 PM 64.0 °F 51.1 °F 63% 30.14 in 10.0 mi North 15.0 mph 20.7 mph N/A   Scattered Clouds
4:54 PM 64.0 °F 50.0 °F 60% 30.14 in 10.0 mi NNE 11.5 mph 24.2 mph N/A   Partly Cloudy
5:54 PM 64.0 °F 48.9 °F 58% 30.13 in 10.0 mi NNE 11.5 mph - N/A   Partly Cloudy
6:54 PM 62.1 °F 48.9 °F 62% 30.14 in 10.0 mi NE 10.4 mph - N/A   Clear
7:54 PM 59.0 °F 48.9 °F 69% 30.15 in 10.0 mi East 4.6 mph - N/A   Clear
8:54 PM 54.0 °F 48.9 °F 83% 30.17 in 10.0 mi ESE 4.6 mph - N/A   Clear
9:54 PM 53.1 °F 48.9 °F 86% 30.18 in 10.0 mi Calm Calm - N/A   Clear
10:54 PM 51.1 °F 48.0 °F 89% 30.18 in 9.0 mi ESE 3.5 mph - N/A   Clear
11:54 PM 48.9 °F 46.9 °F 93% 30.18 in 8.0 mi SE 4.6 mph - N/A   Clear